| time (UTC) | temp C | wind direction | speed KPH | gust KPH | rain 1hr cm | rain 24hr cm | rain mn cm | humidity % | barometer mb |
| 20260506141145 | 11 | 152 | 3.2 | 11.3 | 0.00 | 0.03 | 0.00 | 44 | 1024.9 |
| 20260506140201 | 10 | 239 | 8.0 | 24.1 | 0.00 | 0.03 | 0.00 | 43 | 1025.1 |
| 20260506135216 | 10 | 218 | 6.4 | 16.1 | 0.00 | 0.03 | 0.00 | 45 | 1025.0 |
| 20260506134147 | 10 | 157 | 4.8 | 16.1 | 0.00 | 0.03 | 0.00 | 46 | 1025.0 |
| 20260506133201 | 9 | 284 | 9.7 | 29.0 | 0.00 | 0.03 | 0.00 | 47 | 1024.9 |
| 20260506132158 | 8 | 228 | 4.8 | 17.7 | 0.00 | 0.03 | 0.00 | 49 | 1024.8 |
| 20260506131214 | 8 | 269 | 4.8 | 11.3 | 0.00 | 0.03 | 0.00 | 50 | 1024.7 |
| 20260506130123 | 7 | 292 | 4.8 | 11.3 | 0.00 | 0.03 | 0.00 | 53 | 1024.7 |
| 20260506125138 | 7 | 279 | 1.6 | 4.8 | 0.00 | 0.03 | 0.00 | 54 | 1024.6 |
| 20260506124216 | 7 | 217 | 1.6 | 8.0 | 0.00 | 0.03 | 0.00 | 53 | 1024.4 |
| 20260506123209 | 7 | 335 | 3.2 | 16.1 | 0.00 | 0.03 | 0.00 | 53 | 1024.3 |
| 20260506122120 | 7 | 307 | 4.8 | 14.5 | 0.00 | 0.03 | 0.00 | 53 | 1024.2 |
| 20260506121134 | 7 | 230 | 3.2 | 11.3 | 0.00 | 0.03 | 0.00 | 53 | 1024.0 |
| 20260506120151 | 8 | 276 | 3.2 | 4.8 | 0.00 | 0.03 | 0.00 | 52 | 1023.9 |
| 20260506115204 | 8 | 293 | 4.8 | 11.3 | 0.00 | 0.03 | 0.00 | 52 | 1024.0 |
| 20260506114221 | 8 | 326 | 3.2 | 12.9 | 0.00 | 0.03 | 0.00 | 52 | 1023.9 |
| 20260506113131 | 8 | 274 | 8.0 | 12.9 | 0.00 | 0.03 | 0.00 | 51 | 1023.9 |
| 20260506112146 | 8 | 40 | 3.2 | 4.8 | 0.00 | 0.03 | 0.00 | 52 | 1023.8 |
| 20260506111203 | 8 | 263 | 4.8 | 14.5 | 0.00 | 0.03 | 0.00 | 51 | 1023.7 |
| 20260506110217 | 8 | 285 | 6.4 | 11.3 | 0.00 | 0.03 | 0.00 | 51 | 1023.6 |
| 20260506105129 | 9 | 254 | 3.2 | 20.9 | 0.00 | 0.03 | 0.00 | 50 | 1023.5 |
| 20260506104145 | 9 | 318 | 6.4 | 17.7 | 0.00 | 0.03 | 0.00 | 50 | 1023.4 |
| 20260506103159 | 9 | 310 | 8.0 | 24.1 | 0.00 | 0.03 | 0.00 | 47 | 1023.6 |
| 20260506102236 | 9 | 296 | 8.0 | 20.9 | 0.00 | 0.03 | 0.00 | 50 | 1023.6 |
| 20260506101126 | 8 | 295 | 3.2 | 11.3 | 0.00 | 0.03 | 0.00 | 51 | 1023.5 |
| 20260506100141 | 9 | 280 | 4.8 | 17.7 | 0.00 | 0.03 | 0.00 | 51 | 1023.4 |
| 20260506095156 | 9 | 309 | 8.0 | 16.1 | 0.00 | 0.03 | 0.00 | 50 | 1023.4 |
| 20260506094213 | 9 | 327 | 4.8 | 17.7 | 0.00 | 0.03 | 0.00 | 50 | 1023.5 |
| 20260506093228 | 9 | 314 | 6.4 | 20.9 | 0.00 | 0.03 | 0.00 | 50 | 1023.4 |
| 20260506092139 | 10 | 250 | 6.4 | 11.3 | 0.00 | 0.03 | 0.00 | 49 | 1023.2 |
| 20260506091151 | 10 | 315 | 4.8 | 17.7 | 0.00 | 0.03 | 0.00 | 48 | 1023.3 |
| 20260506090228 | 10 | 336 | 6.4 | 22.5 | 0.00 | 0.03 | 0.00 | 48 | 1023.2 |
| 20260506085224 | 10 | 314 | 4.8 | 22.5 | 0.00 | 0.03 | 0.00 | 47 | 1023.2 |
| 20260506084134 | 10 | 27 | 3.2 | 14.5 | 0.00 | 0.03 | 0.00 | 48 | 1023.1 |
| 20260506083148 | 10 | 259 | 6.4 | 16.1 | 0.00 | 0.03 | 0.00 | 46 | 1023.2 |
| 20260506082203 | 10 | 167 | 4.8 | 12.9 | 0.00 | 0.03 | 0.00 | 46 | 1023.1 |
| 20260506081238 | 10 | 238 | 6.4 | 16.1 | 0.00 | 0.03 | 0.00 | 45 | 1023.1 |
| 20260506080234 | 10 | 296 | 6.4 | 14.5 | 0.00 | 0.03 | 0.00 | 43 | 1023.2 |
| 20260506073212 | 11 | 240 | 3.2 | 12.9 | 0.00 | 0.03 | 0.00 | 40 | 1023.2 |
| 20260506072227 | 11 | 298 | 4.8 | 17.7 | 0.00 | 0.03 | 0.00 | 39 | 1023.1 |
| 20260506071140 | 11 | 280 | 9.7 | 17.7 | 0.00 | 0.03 | 0.00 | 38 | 1023.2 |
| 20260506070154 | 11 | 266 | 8.0 | 20.9 | 0.00 | 0.03 | 0.00 | 37 | 1023.3 |
| 20260506062151 | 12 | 276 | 6.4 | 25.7 | 0.00 | 0.03 | 0.00 | 35 | 1022.8 |
| 20260506061206 | 12 | 291 | 6.4 | 14.5 | 0.00 | 0.03 | 0.00 | 34 | 1022.9 |
| 20260506060222 | 12 | 355 | 4.8 | 14.5 | 0.00 | 0.03 | 0.00 | 33 | 1022.8 |
| 20260506051253 | 13 | 345 | 8.0 | 24.1 | 0.00 | 0.03 | 0.03 | 32 | 1022.5 |
| 20260506050247 | 13 | 237 | 6.4 | 22.5 | 0.00 | 0.03 | 0.03 | 32 | 1022.5 |
| 20260506044213 | 13 | 67 | 1.6 | 11.3 | 0.00 | 0.03 | 0.03 | 35 | 1022.4 |
| 20260506043228 | 13 | 2 | 4.8 | 22.5 | 0.00 | 0.03 | 0.03 | 34 | 1022.4 |
| 20260506042139 | 12 | 260 | 4.8 | 11.3 | 0.00 | 0.03 | 0.03 | 35 | 1022.3 |
| 20260506041156 | 12 | 289 | 3.2 | 11.3 | 0.00 | 0.03 | 0.03 | 40 | 1022.0 |
| 20260506040210 | 12 | 1 | 3.2 | 9.7 | 0.00 | 0.03 | 0.03 | 40 | 1022.2 |
| 20260506035246 | 13 | 277 | 3.2 | 16.1 | 0.00 | 0.03 | 0.03 | 41 | 1021.9 |
| 20260506034240 | 13 | 253 | 4.8 | 12.9 | 0.00 | 0.03 | 0.03 | 41 | 1022.1 |
| 20260506033150 | 13 | 45 | 1.6 | 9.7 | 0.00 | 0.03 | 0.03 | 42 | 1021.9 |
| 20260506032205 | 13 | 349 | 1.6 | 8.0 | 0.00 | 0.03 | 0.03 | 43 | 1021.7 |
| 20260506031222 | 12 | 326 | 3.2 | 8.0 | 0.00 | 0.03 | 0.03 | 43 | 1021.7 |
| 20260506030236 | 13 | 317 | 6.4 | 16.1 | 0.00 | 0.03 | 0.03 | 42 | 1021.6 |
| 20260506025147 | 13 | 105 | 0.0 | 11.3 | 0.00 | 0.03 | 0.03 | 42 | 1021.6 |
| 20260506024204 | 13 | 326 | 6.4 | 14.5 | 0.00 | 0.03 | 0.03 | 42 | 1021.5 |
| 20260506023218 | 13 | 352 | 3.2 | 9.7 | 0.00 | 0.03 | 0.03 | 42 | 1021.4 |
| 20260506022255 | 13 | 313 | 4.8 | 17.7 | 0.00 | 0.03 | 0.03 | 43 | 1021.4 |
| 20260506021206 | 12 | 6 | 1.6 | 8.0 | 0.00 | 0.03 | 0.03 | 43 | 1021.3 |
| 20260506020201 | 13 | 331 | 3.2 | 16.1 | 0.00 | 0.03 | 0.03 | 42 | 1021.3 |
| 20260506015215 | 13 | 301 | 4.8 | 11.3 | 0.00 | 0.03 | 0.03 | 42 | 1021.1 |
| 20260506014230 | 13 | 346 | 3.2 | 9.7 | 0.00 | 0.03 | 0.03 | 42 | 1021.0 |
| 20260506013245 | 13 | 301 | 8.0 | 17.7 | 0.00 | 0.03 | 0.03 | 41 | 1021.0 |
| 20260506012157 | 13 | 310 | 4.8 | 8.0 | 0.00 | 0.03 | 0.03 | 41 | 1021.0 |
| 20260506011212 | 14 | 250 | 6.4 | 17.7 | 0.00 | 0.03 | 0.03 | 41 | 1021.1 |
| 20260506010228 | 14 | 307 | 9.7 | 24.1 | 0.00 | 0.03 | 0.03 | 39 | 1021.0 |
| 20260506005243 | 14 | 256 | 9.7 | 29.0 | 0.00 | 0.03 | 0.03 | 38 | 1021.1 |
| 20260506004155 | 14 | 218 | 6.4 | 24.1 | 0.00 | 0.03 | 0.03 | 39 | 1020.9 |
| 20260506003210 | 14 | 293 | 3.2 | 11.3 | 0.00 | 0.03 | 0.03 | 38 | 1020.7 |
| 20260506002245 | 14 | 8 | 11.3 | 20.9 | 0.00 | 0.03 | 0.03 | 40 | 1020.9 |
| 20260506001241 | 14 | 190 | 8.0 | 27.4 | 0.00 | 0.03 | 0.03 | 44 | 1020.8 |
| 20260506000152 | 14 | 318 | 6.4 | 14.5 | 0.00 | 0.03 | 0.03 | 44 | 1020.8 |
| 20260505235228 | 14 | 183 | 12.9 | 38.6 | 0.00 | 0.03 | 0.03 | 44 | 1020.9 |
| 20260505234223 | 13 | 235 | 8.0 | 24.1 | 0.00 | 0.03 | 0.03 | 47 | 1021.0 |
| 20260505233258 | 13 | 248 | 8.0 | 25.7 | 0.00 | 0.03 | 0.03 | 47 | 1020.9 |
| 20260505232252 | 14 | 213 | 6.4 | 17.7 | 0.00 | 0.03 | 0.03 | 46 | 1020.9 |
| 20260505231203 | 13 | 219 | 8.0 | 17.7 | 0.00 | 0.03 | 0.03 | 47 | 1021.0 |
| 20260505230218 | 14 | 250 | 8.0 | 16.1 | 0.00 | 0.03 | 0.03 | 47 | 1021.0 |
| 20260505225233 | 13 | 188 | 6.4 | 17.7 | 0.00 | 0.03 | 0.03 | 48 | 1021.3 |
| 20260505224248 | 13 | 226 | 8.0 | 22.5 | 0.00 | 0.03 | 0.03 | 48 | 1021.3 |
| 20260505223200 | 13 | 87 | 8.0 | 20.9 | 0.00 | 0.03 | 0.03 | 50 | 1021.4 |
| 20260505222235 | 13 | 281 | 11.3 | 25.7 | 0.00 | 0.03 | 0.03 | 50 | 1021.5 |
| 20260505221230 | 13 | 303 | 8.0 | 20.9 | 0.00 | 0.03 | 0.03 | 50 | 1021.6 |
| 20260505220246 | 13 | 297 | 8.0 | 25.7 | 0.00 | 0.03 | 0.03 | 50 | 1021.7 |
| 20260505215157 | 13 | 190 | 6.4 | 14.5 | 0.00 | 0.03 | 0.03 | 51 | 1021.9 |
| 20260505214212 | 12 | 260 | 6.4 | 16.1 | 0.00 | 0.03 | 0.03 | 52 | 1022.2 |
| 20260505213228 | 12 | 295 | 4.8 | 14.5 | 0.00 | 0.03 | 0.03 | 54 | 1022.0 |
| 20260505212243 | 12 | 153 | 3.2 | 11.3 | 0.00 | 0.03 | 0.03 | 56 | 1022.5 |
| 20260505211319 | 12 | 175 | 6.4 | 16.1 | 0.00 | 0.03 | 0.03 | 56 | 1022.5 |
| 20260505210209 | 12 | 113 | 3.2 | 27.4 | 0.00 | 0.03 | 0.03 | 57 | 1022.8 |
| 20260505205245 | 12 | 267 | 3.2 | 14.5 | 0.00 | 0.03 | 0.03 | 58 | 1023.0 |
| 20260505204239 | 12 | 255 | 8.0 | 16.1 | 0.03 | 0.03 | 0.03 | 59 | 1023.2 |
| 20260505203254 | 11 | 202 | 4.8 | 12.9 | 0.03 | 0.03 | 0.03 | 61 | 1023.4 |
| 20260505202206 | 11 | 193 | 3.2 | 14.5 | 0.03 | 0.03 | 0.03 | 61 | 1023.6 |
| 20260505201221 | 11 | 254 | 6.4 | 12.9 | 0.03 | 0.03 | 0.03 | 61 | 1023.4 |
| 20260505200236 | 11 | 285 | 12.9 | 24.1 | 0.03 | 0.03 | 0.03 | 62 | 1023.2 |
| 20260505195252 | 11 | 301 | 9.7 | 22.5 | 0.03 | 0.03 | 0.03 | 62 | 1023.2 |
| 20260505194203 | 11 | 175 | 11.3 | 22.5 | 0.00 | 0.00 | 0.00 | 62 | 1023.2 |
| 20260505193219 | 11 | 165 | 4.8 | 16.1 | 0.00 | 0.00 | 0.00 | 62 | 1023.4 |
| 20260505192234 | 11 | 330 | 4.8 | 16.1 | 0.00 | 0.00 | 0.00 | 62 | 1023.2 |
| 20260505191145 | 11 | 154 | 4.8 | 16.1 | 0.00 | 0.00 | 0.00 | 60 | 1022.9 |
| 20260505190201 | 11 | 155 | 6.4 | 22.5 | 0.00 | 0.00 | 0.00 | 60 | 1022.8 |
| 20260505185112 | 11 | 264 | 8.0 | 17.7 | 0.00 | 0.00 | 0.00 | 56 | 1023.3 |
| 20260505184127 | 12 | 237 | 8.0 | 22.5 | 0.00 | 0.00 | 0.00 | 48 | 1023.2 |
| 20260505183143 | 12 | 318 | 8.0 | 24.1 | 0.00 | 0.00 | 0.00 | 46 | 1022.9 |
| 20260505182157 | 12 | 31 | 1.6 | 8.0 | 0.00 | 0.00 | 0.00 | 46 | 1022.8 |
| 20260505181109 | 12 | 245 | 4.8 | 17.7 | 0.00 | 0.00 | 0.00 | 46 | 1023.2 |
| 20260505180124 | 12 | 333 | 4.8 | 20.9 | 0.00 | 0.00 | 0.00 | 46 | 1023.2 |
| 20260505175140 | 12 | 319 | 6.4 | 20.9 | 0.00 | 0.00 | 0.00 | 46 | 1023.3 |
| 20260505174156 | 13 | 230 | 4.8 | 12.9 | 0.00 | 0.00 | 0.00 | 45 | 1023.3 |
| 20260505173106 | 13 | 286 | 8.0 | 24.1 | 0.00 | 0.00 | 0.00 | 44 | 1023.2 |
| 20260505172122 | 13 | 20 | 4.8 | 16.1 | 0.00 | 0.00 | 0.00 | 44 | 1023.2 |
| 20260505171137 | 14 | 272 | 8.0 | 25.7 | 0.00 | 0.00 | 0.00 | 43 | 1023.0 |
| 20260505170153 | 13 | 308 | 9.7 | 22.5 | 0.00 | 0.00 | 0.00 | 43 | 1023.0 |
| 20260505165208 | 12 | 297 | 8.0 | 25.7 | 0.00 | 0.00 | 0.00 | 44 | 1022.9 |
| 20260505164120 | 12 | 230 | 6.4 | 11.3 | 0.00 | 0.00 | 0.00 | 43 | 1022.9 |
| 20260505163134 | 12 | 359 | 8.0 | 17.7 | 0.00 | 0.00 | 0.00 | 43 | 1022.8 |
| 20260505162150 | 12 | 288 | 9.7 | 17.7 | 0.00 | 0.00 | 0.00 | 43 | 1023.0 |
| 20260505161208 | 12 | 261 | 6.4 | 14.5 | 0.00 | 0.00 | 0.00 | 40 | 1023.3 |
| 20260505160116 | 12 | 308 | 6.4 | 14.5 | 0.00 | 0.00 | 0.00 | 38 | 1022.9 |
| 20260505153202 | 12 | 239 | 4.8 | 14.5 | 0.00 | 0.00 | 0.00 | 41 | 1022.9 |
| 20260505152112 | 12 | 122 | 3.2 | 11.3 | 0.00 | 0.00 | 0.00 | 42 | 1022.9 |
| 20260505151127 | 12 | 186 | 4.8 | 11.3 | 0.00 | 0.00 | 0.00 | 42 | 1022.9 |
| 20260505150142 | 12 | 243 | 3.2 | 12.9 | 0.00 | 0.00 | 0.00 | 44 | 1023.0 |